COSMOS 2527 (756)

Last updated on Tue Sep 16 2025 00:03:19 GMT+0000 (Coordinated Universal Time)

1 43508U 18053A 25258.09772964 .00000037 00000+0 00000+0 0 9991 2 43508 65.4240 83.0932 0007066 214.2483 145.7587 2.13102133 56410
UTC large
Height (km)
Speed (km/s)
/
Latitude / Longitude
Inclination (degrees)
Orbital Period (minutes)
Azimuth
Elevation
Range (km)
Doppler Factor

Next 0 passes for location: London (51.5072 / 0.1276)

Sorry there are no passes over London.